| time (UTC) | temp F | wind direction | speed MPH | gust MPH | rain 1hr in | rain 24hr in | rain mn in | humidity % | barometer mb |
| 20260505025009 | 50 | 331 | 0.0 | 5.0 | 0.08 | 0.49 | 0.48 | 94 | 1012.2 |
| 20260505024505 | 50 | 329 | 0.0 | 0.0 | 0.07 | 0.47 | 0.46 | 94 | 1012.3 |
| 20260505024003 | 50 | 306 | 0.0 | 3.0 | 0.07 | 0.46 | 0.46 | 94 | 1012.2 |
| 20260505023503 | 50 | 321 | 0.0 | 1.0 | 0.07 | 0.46 | 0.45 | 94 | 1012.3 |
| 20260505023010 | 50 | 11 | 0.0 | 3.0 | 0.08 | 0.46 | 0.45 | 94 | 1012.2 |
| 20260505022503 | 50 | 338 | 0.0 | 3.0 | 0.08 | 0.45 | 0.44 | 94 | 1012.1 |
| 20260505022102 | 51 | 333 | 0.0 | 0.0 | 0.08 | 0.45 | 0.44 | 94 | 1012.1 |
| 20260505021502 | 51 | 328 | 0.0 | 5.0 | 0.08 | 0.44 | 0.43 | 94 | 1012.1 |
| 20260505021002 | 51 | 333 | 0.0 | 5.0 | 0.07 | 0.43 | 0.43 | 94 | 1012.1 |
| 20260505020600 | 51 | 344 | 0.0 | 3.0 | 0.07 | 0.43 | 0.43 | 94 | 1012.1 |
| 20260505020100 | 51 | 344 | 0.0 | 6.0 | 0.07 | 0.43 | 0.42 | 94 | 1012.1 |
| 20260505015559 | 51 | 323 | 0.0 | 6.0 | 0.06 | 0.42 | 0.41 | 94 | 1012.1 |
| 20260505015058 | 51 | 325 | 0.0 | 2.0 | 0.06 | 0.41 | 0.40 | 94 | 1012.3 |
| 20260505014606 | 51 | 331 | 0.0 | 5.0 | 0.06 | 0.40 | 0.39 | 94 | 1012.3 |
| 20260505014056 | 52 | 327 | 1.0 | 5.0 | 0.06 | 0.39 | 0.39 | 94 | 1012.3 |
| 20260505013559 | 52 | 334 | 0.0 | 3.0 | 0.06 | 0.39 | 0.38 | 94 | 1012.3 |
| 20260505013058 | 52 | 334 | 0.0 | 4.0 | 0.06 | 0.38 | 0.37 | 94 | 1012.3 |
| 20260505012555 | 52 | 329 | 0.0 | 4.0 | 0.05 | 0.37 | 0.36 | 94 | 1012.4 |
| 20260505012055 | 52 | 331 | 0.0 | 0.0 | 0.06 | 0.37 | 0.36 | 94 | 1012.5 |
| 20260505011555 | 52 | 329 | 0.0 | 0.0 | 0.06 | 0.36 | 0.35 | 94 | 1012.5 |
| 20260505011053 | 52 | 329 | 0.0 | 0.0 | 0.07 | 0.36 | 0.35 | 94 | 1012.6 |
| 20260505010554 | 52 | 329 | 0.0 | 0.0 | 0.09 | 0.36 | 0.35 | 94 | 1012.5 |
| 20260505010112 | 52 | 329 | 0.0 | 0.0 | 0.09 | 0.35 | 0.35 | 94 | 1012.5 |
| 20260505005552 | 52 | 328 | 0.0 | 1.0 | 0.10 | 0.35 | 0.35 | 94 | 1012.6 |
| 20260505005052 | 52 | 327 | 0.0 | 1.0 | 0.12 | 0.35 | 0.34 | 94 | 1012.6 |
| 20260505004551 | 52 | 338 | 0.0 | 4.0 | 0.12 | 0.34 | 0.33 | 94 | 1012.6 |
| 20260505004049 | 52 | 337 | 0.0 | 4.0 | 0.13 | 0.34 | 0.33 | 94 | 1012.7 |
| 20260505003549 | 52 | 339 | 0.0 | 0.0 | 0.14 | 0.33 | 0.32 | 94 | 1012.7 |
| 20260505003054 | 52 | 337 | 0.0 | 0.0 | 0.15 | 0.32 | 0.31 | 94 | 1012.8 |
| 20260505002548 | 52 | 337 | 0.0 | 0.0 | 0.17 | 0.32 | 0.31 | 94 | 1012.9 |
| 20260505002048 | 53 | 337 | 0.0 | 0.0 | 0.17 | 0.31 | 0.31 | 93 | 1012.8 |
| 20260505001548 | 53 | 337 | 0.0 | 0.0 | 0.17 | 0.30 | 0.28 | 93 | 1012.8 |
| 20260505001048 | 53 | 337 | 0.0 | 5.0 | 0.17 | 0.28 | 0.28 | 93 | 1012.9 |
| 20260505000546 | 53 | 337 | 0.0 | 5.0 | 0.17 | 0.28 | 0.27 | 93 | 1012.9 |
| 20260505000048 | 53 | 342 | 0.0 | 6.0 | 0.17 | 0.26 | 0.25 | 93 | 1013.0 |
| 20260504235545 | 53 | 342 | 0.0 | 6.0 | 0.17 | 0.24 | 0.24 | 93 | 1013.0 |
| 20260504235046 | 53 | 346 | 0.0 | 2.0 | 0.16 | 0.23 | 0.22 | 93 | 1013.0 |
| 20260504234544 | 53 | 348 | 0.0 | 0.0 | 0.16 | 0.22 | 0.21 | 93 | 1013.1 |
| 20260504234043 | 53 | 348 | 0.0 | 0.0 | 0.15 | 0.20 | 0.20 | 93 | 1013.1 |
| 20260504233542 | 53 | 348 | 0.0 | 0.0 | 0.14 | 0.19 | 0.18 | 93 | 1013.1 |
| 20260504233043 | 53 | 348 | 0.0 | 0.0 | 0.14 | 0.17 | 0.17 | 93 | 1013.2 |
| 20260504232542 | 53 | 348 | 0.0 | 0.0 | 0.13 | 0.16 | 0.15 | 93 | 1013.1 |
| 20260504232043 | 53 | 348 | 0.0 | 0.0 | 0.12 | 0.14 | 0.13 | 93 | 1013.2 |
| 20260504231546 | 53 | 348 | 0.0 | 0.0 | 0.11 | 0.13 | 0.12 | 93 | 1013.1 |
| 20260504231040 | 53 | 348 | 0.0 | 0.0 | 0.11 | 0.12 | 0.11 | 92 | 1013.2 |
| 20260504230542 | 53 | 348 | 0.0 | 0.0 | 0.09 | 0.10 | 0.09 | 92 | 1013.3 |
| 20260504230044 | 53 | 348 | 0.0 | 0.0 | 0.08 | 0.09 | 0.08 | 92 | 1013.3 |
| 20260504225540 | 53 | 348 | 0.0 | 0.0 | 0.08 | 0.08 | 0.07 | 92 | 1013.3 |
| 20260504225039 | 53 | 348 | 0.0 | 0.0 | 0.07 | 0.07 | 0.06 | 92 | 1013.3 |
| 20260504224539 | 53 | 348 | 0.0 | 0.0 | 0.06 | 0.06 | 0.06 | 92 | 1013.3 |
| 20260504224038 | 53 | 348 | 0.0 | 0.0 | 0.06 | 0.06 | 0.05 | 92 | 1013.3 |
| 20260504223541 | 53 | 348 | 0.0 | 0.0 | 0.04 | 0.04 | 0.03 | 92 | 1013.3 |
| 20260504223038 | 53 | 348 | 0.0 | 0.0 | 0.03 | 0.03 | 0.02 | 91 | 1013.4 |
| 20260504222537 | 53 | 348 | 0.0 | 0.0 | 0.02 | 0.02 | 0.02 | 91 | 1013.3 |
| 20260504222037 | 53 | 348 | 0.0 | 0.0 | 0.02 | 0.02 | 0.02 | 91 | 1013.3 |
| 20260504221548 | 53 | 348 | 0.0 | 0.0 | 0.02 | 0.02 | 0.01 | 91 | 1013.3 |
| 20260504221036 | 53 | 348 | 0.0 | 0.0 | 0.01 | 0.01 | 0.00 | 91 | 1013.3 |
| 20260504220536 | 53 | 348 | 0.0 | 0.0 | 0.01 | 0.01 | 0.00 | 90 | 1013.3 |
| 20260504220035 | 53 | 348 | 0.0 | 0.0 | 0.01 | 0.01 | 0.00 | 91 | 1013.4 |
| 20260504215535 | 53 | 348 | 0.0 | 0.0 | 0.00 | 0.00 | 0.00 | 91 | 1013.4 |
| 20260504215034 | 53 | 348 | 0.0 | 0.0 | 0.00 | 0.00 | 0.00 | 90 | 1013.4 |
| 20260504214535 | 53 | 348 | 0.0 | 0.0 | 0.00 | 0.00 | 0.00 | 90 | 1013.3 |
| 20260504214034 | 53 | 348 | 0.0 | 0.0 | 0.00 | 0.00 | 0.00 | 90 | 1013.3 |
| 20260504213534 | 53 | 348 | 0.0 | 0.0 | 0.00 | 0.00 | 0.00 | 90 | 1013.3 |
| 20260504213046 | 53 | 348 | 0.0 | 0.0 | 0.00 | 0.00 | 0.00 | 90 | 1013.4 |
| 20260504212533 | 53 | 348 | 0.0 | 0.0 | 0.00 | 0.00 | 0.00 | 90 | 1013.4 |
| 20260504212033 | 53 | 348 | 0.0 | 0.0 | 0.00 | 0.00 | 0.00 | 89 | 1013.4 |
| 20260504211537 | 54 | 348 | 0.0 | 0.0 | 0.00 | 0.00 | 0.00 | 89 | 1013.4 |
| 20260504211033 | 54 | 348 | 0.0 | 0.0 | 0.00 | 0.00 | 0.00 | 89 | 1013.4 |
| 20260504210533 | 54 | 348 | 0.0 | 0.0 | 0.00 | 0.00 | 0.00 | 89 | 1013.4 |
| 20260504210033 | 54 | 348 | 0.0 | 0.0 | 0.00 | 0.00 | 0.00 | 89 | 1013.4 |
| 20260504205532 | 54 | 348 | 0.0 | 0.0 | 0.00 | 0.00 | 0.00 | 89 | 1013.5 |
| 20260504205032 | 54 | 348 | 0.0 | 0.0 | 0.00 | 0.00 | 0.00 | 89 | 1013.5 |
| 20260504204532 | 54 | 348 | 0.0 | 0.0 | 0.00 | 0.00 | 0.00 | 89 | 1013.5 |
| 20260504204031 | 54 | 348 | 0.0 | 0.0 | 0.00 | 0.00 | 0.00 | 89 | 1013.5 |
| 20260504203531 | 54 | 325 | 0.0 | 4.0 | 0.00 | 0.00 | 0.00 | 89 | 1013.5 |
| 20260504203044 | 54 | 325 | 0.0 | 4.0 | 0.00 | 0.00 | 0.00 | 88 | 1013.5 |
| 20260504202533 | 54 | 346 | 0.0 | 4.0 | 0.00 | 0.00 | 0.00 | 88 | 1013.4 |
| 20260504202030 | 54 | 350 | 0.0 | 4.0 | 0.00 | 0.00 | 0.00 | 88 | 1013.4 |
| 20260504201531 | 54 | 342 | 0.0 | 0.0 | 0.00 | 0.00 | 0.00 | 88 | 1013.4 |
| 20260504201031 | 55 | 342 | 0.0 | 0.0 | 0.00 | 0.00 | 0.00 | 88 | 1013.4 |
| 20260504200531 | 55 | 342 | 0.0 | 0.0 | 0.00 | 0.00 | 0.00 | 88 | 1013.4 |
| 20260504200031 | 55 | 342 | 0.0 | 0.0 | 0.00 | 0.00 | 0.00 | 87 | 1013.4 |
| 20260504195530 | 55 | 342 | 0.0 | 0.0 | 0.00 | 0.00 | 0.00 | 87 | 1013.3 |
| 20260504195030 | 55 | 342 | 0.0 | 0.0 | 0.00 | 0.00 | 0.00 | 87 | 1013.3 |
| 20260504194538 | 55 | 342 | 0.0 | 0.0 | 0.00 | 0.00 | 0.00 | 87 | 1013.2 |
| 20260504194030 | 55 | 342 | 0.0 | 0.0 | 0.00 | 0.00 | 0.00 | 86 | 1013.1 |
| 20260504193533 | 55 | 346 | 0.0 | 0.0 | 0.00 | 0.00 | 0.00 | 86 | 1013.0 |
| 20260504193030 | 56 | 350 | 0.0 | 0.0 | 0.00 | 0.00 | 0.00 | 86 | 1013.1 |
| 20260504192529 | 56 | 350 | 0.0 | 0.0 | 0.00 | 0.00 | 0.00 | 86 | 1013.0 |
| 20260504192032 | 56 | 347 | 0.0 | 0.0 | 0.00 | 0.00 | 0.00 | 85 | 1013.0 |
| 20260504191536 | 56 | 360 | 0.0 | 0.0 | 0.00 | 0.00 | 0.00 | 86 | 1013.0 |
| 20260504191029 | 56 | 5 | 0.0 | 0.0 | 0.00 | 0.00 | 0.00 | 86 | 1012.9 |
| 20260504190529 | 56 | 5 | 0.0 | 4.0 | 0.00 | 0.00 | 0.00 | 85 | 1012.9 |
| 20260504190029 | 56 | 5 | 0.0 | 4.0 | 0.00 | 0.00 | 0.00 | 85 | 1012.9 |
| 20260504185530 | 56 | 5 | 0.0 | 4.0 | 0.00 | 0.00 | 0.00 | 85 | 1012.8 |
| 20260504185032 | 56 | 5 | 0.0 | 4.0 | 0.00 | 0.00 | 0.00 | 85 | 1012.7 |
| 20260504184530 | 57 | 348 | 0.0 | 0.0 | 0.00 | 0.00 | 0.00 | 84 | 1012.7 |
| 20260504184030 | 57 | 342 | 0.0 | 0.0 | 0.00 | 0.00 | 0.00 | 84 | 1012.7 |
| 20260504183527 | 57 | 30 | 0.0 | 0.0 | 0.00 | 0.00 | 0.00 | 83 | 1012.8 |
| 20260504183028 | 57 | 54 | 0.0 | 0.0 | 0.00 | 0.00 | 0.00 | 83 | 1012.8 |
| 20260504182527 | 57 | 54 | 0.0 | 2.0 | 0.00 | 0.00 | 0.00 | 82 | 1012.8 |
| 20260504182027 | 57 | 38 | 0.0 | 8.0 | 0.00 | 0.00 | 0.00 | 82 | 1012.7 |
| 20260504181527 | 57 | 20 | 1.0 | 8.0 | 0.00 | 0.00 | 0.00 | 82 | 1012.7 |
| 20260504181029 | 57 | 36 | 0.0 | 6.0 | 0.00 | 0.00 | 0.00 | 82 | 1012.7 |
| 20260504180527 | 57 | 17 | 1.0 | 6.0 | 0.00 | 0.00 | 0.00 | 81 | 1012.7 |
| 20260504180027 | 58 | 346 | 0.0 | 5.0 | 0.00 | 0.00 | 0.00 | 81 | 1012.7 |
| 20260504175530 | 58 | 37 | 0.0 | 8.0 | 0.00 | 0.00 | 0.00 | 81 | 1012.7 |
| 20260504175026 | 58 | 29 | 2.0 | 9.0 | 0.00 | 0.00 | 0.00 | 80 | 1012.7 |
| 20260504174526 | 59 | 43 | 0.0 | 9.0 | 0.00 | 0.00 | 0.00 | 81 | 1012.6 |
| 20260504174026 | 59 | 30 | 2.0 | 10.0 | 0.00 | 0.00 | 0.00 | 82 | 1012.6 |
| 20260504173525 | 58 | 55 | 2.0 | 10.0 | 0.00 | 0.00 | 0.00 | 82 | 1012.6 |
| 20260504173027 | 58 | 32 | 3.0 | 11.0 | 0.00 | 0.00 | 0.00 | 82 | 1012.5 |
| 20260504172524 | 58 | 349 | 6.0 | 11.0 | 0.00 | 0.00 | 0.00 | 83 | 1012.5 |
| 20260504172024 | 58 | 355 | 1.0 | 13.0 | 0.00 | 0.00 | 0.00 | 82 | 1012.5 |
| 20260504171531 | 58 | 13 | 7.0 | 13.0 | 0.00 | 0.00 | 0.00 | 82 | 1012.6 |
| 20260504171025 | 59 | 5 | 7.0 | 15.0 | 0.00 | 0.00 | 0.00 | 81 | 1012.5 |
| 20260504170524 | 59 | 61 | 6.0 | 15.0 | 0.00 | 0.00 | 0.00 | 81 | 1012.6 |
| 20260504151018 | 62 | 21 | 6.0 | 11.0 | 0.00 | 0.00 | 0.00 | 70 | 1012.6 |
| 20260504150618 | 62 | 23 | 5.0 | 13.0 | 0.00 | 0.00 | 0.00 | 68 | 1012.5 |
| 20260504141018 | 62 | 45 | 1.0 | 9.0 | 0.00 | 0.09 | 0.00 | 72 | 1012.9 |
| 20260504140512 | 61 | 64 | 5.0 | 10.0 | 0.00 | 0.09 | 0.00 | 72 | 1012.9 |
| 20260504130511 | 62 | 355 | 7.0 | 13.0 | 0.00 | 0.09 | 0.00 | 77 | 1013.1 |
| 20260504110508 | 60 | 50 | 1.0 | 10.0 | 0.00 | 0.09 | 0.00 | 76 | 1013.6 |
| 20260504100502 | 62 | 37 | 6.0 | 10.0 | 0.00 | 0.09 | 0.00 | 76 | 1013.5 |
| 20260504081548 | 56 | 34 | 3.0 | 9.0 | 0.00 | 0.09 | 0.00 | 88 | 1013.2 |
| 20260504081041 | 55 | 66 | 2.0 | 5.0 | 0.00 | 0.09 | 0.00 | 90 | 1013.3 |
| 20260504080540 | 55 | 36 | 0.0 | 5.0 | 0.00 | 0.09 | 0.00 | 92 | 1013.2 |
| 20260504050517 | 47 | 351 | 0.0 | 0.0 | 0.00 | 0.09 | 0.00 | 94 | 1012.1 |
| 20260504050012 | 47 | 351 | 0.0 | 0.0 | 0.00 | 0.09 | 0.00 | 94 | 1012.1 |
| 20260504045511 | 47 | 351 | 0.0 | 0.0 | 0.00 | 0.09 | 0.00 | 95 | 1012.1 |
| 20260504045013 | 47 | 351 | 0.0 | 0.0 | 0.00 | 0.09 | 0.00 | 95 | 1012.1 |
| 20260504044510 | 47 | 351 | 0.0 | 0.0 | 0.00 | 0.09 | 0.00 | 95 | 1011.9 |
| 20260504044010 | 47 | 351 | 0.0 | 0.0 | 0.00 | 0.09 | 0.00 | 94 | 1011.9 |
| 20260504043509 | 47 | 351 | 0.0 | 0.0 | 0.00 | 0.09 | 0.00 | 94 | 1011.9 |
| 20260504043009 | 47 | 351 | 0.0 | 0.0 | 0.00 | 0.09 | 0.00 | 95 | 1012.0 |
| 20260504042509 | 47 | 351 | 0.0 | 0.0 | 0.00 | 0.09 | 0.00 | 94 | 1012.0 |
| 20260504042008 | 48 | 351 | 0.0 | 0.0 | 0.00 | 0.09 | 0.00 | 95 | 1011.9 |
| 20260504041509 | 48 | 351 | 0.0 | 0.0 | 0.00 | 0.09 | 0.00 | 95 | 1012.1 |
| 20260504041007 | 48 | 351 | 0.0 | 0.0 | 0.00 | 0.09 | 0.00 | 95 | 1011.9 |
| 20260504040507 | 48 | 351 | 0.0 | 0.0 | 0.00 | 0.09 | 0.00 | 95 | 1012.1 |
| 20260504040020 | 48 | 351 | 0.0 | 0.0 | 0.00 | 0.09 | 0.00 | 94 | 1012.1 |
| 20260504035510 | 48 | 351 | 0.0 | 0.0 | 0.00 | 0.09 | 0.00 | 94 | 1012.1 |
| 20260504035008 | 48 | 351 | 0.0 | 0.0 | 0.00 | 0.09 | 0.00 | 95 | 1012.1 |
| 20260504034507 | 48 | 351 | 0.0 | 0.0 | 0.00 | 0.09 | 0.00 | 94 | 1012.0 |
| 20260504034005 | 48 | 351 | 0.0 | 0.0 | 0.00 | 0.09 | 0.00 | 94 | 1012.0 |
| 20260504033505 | 48 | 351 | 0.0 | 0.0 | 0.00 | 0.09 | 0.00 | 95 | 1012.1 |
| 20260504033005 | 47 | 351 | 0.0 | 0.0 | 0.00 | 0.09 | 0.00 | 95 | 1012.1 |
| 20260504032505 | 47 | 351 | 0.0 | 0.0 | 0.00 | 0.09 | 0.00 | 94 | 1012.2 |
| 20260504032008 | 48 | 351 | 0.0 | 0.0 | 0.00 | 0.09 | 0.00 | 94 | 1012.2 |
| 20260504031504 | 48 | 351 | 0.0 | 0.0 | 0.00 | 0.09 | 0.00 | 94 | 1012.2 |
| 20260504031004 | 48 | 351 | 0.0 | 0.0 | 0.00 | 0.09 | 0.00 | 94 | 1012.2 |
| 20260504030502 | 48 | 351 | 0.0 | 0.0 | 0.00 | 0.09 | 0.00 | 94 | 1012.2 |
| 20260504030002 | 48 | 351 | 0.0 | 0.0 | 0.00 | 0.09 | 0.00 | 94 | 1012.3 |
| 20260504025502 | 48 | 351 | 0.0 | 0.0 | 0.00 | 0.09 | 0.00 | 94 | 1012.2 |